Union County (MRT)

 

Airport Diagram
No Airport Diagram Available
Current Weather/Forecast (VFR Conditions)
METAR KMRT 190035Z AUTO 31003KT 10SM CLR 12/M06 A2987 RMK AO2 T01211056
TAF

Airport Information

All Charts
General
Chart Name View
TAKEOFF MINIMUMS
ALTERNATE MINIMUMS
TAKEOFF MINIMUMS
ALTERNATE MINIMUMS

Approaches
Chart Name Download
RNAV (GPS) RWY 09
RNAV (GPS) RWY 27
RNAV (GPS) RWY 09
RNAV (GPS) RWY 27


Airport Statistics
Departures Arrivals Local
All Collected Stats since June 2016: 9 8 0
2021 Stats: 1 1 0
April Stats: 0 0 0

Inbound Traffic (Arrivals) - 0

No inbound traffic.


Outbound Traffic (Departures) - 0

No outbound traffic.


Local Traffic (Pattern) - 0

No local traffic.